Lamoni, IA

7:53 AM CDT on July 21, 2017 (GMT -0500)
Lamoni Municipal

Weather History for KLWD - April, 2013

Change the Weather History Date:

Thursday, April 25, 2013

  Actual Average Record
Temperature  
Mean Temperature 49 °F 55 °F  
Max Temperature 64 °F 65 °F 91 °F (1989)
Min Temperature 33 °F 44 °F 30 °F (1968)
Degree Days  
Heating Degree Days 16 11  
Month to date heating degree days 488 357  
Since 1 July heating degree days 5849 5846  
Cooling Degree Days 0 0  
Month to date cooling degree days 0 0  
Year to date cooling degree days 0 1  
Moisture  
Dew Point 33 °F    
Average Humidity 58    
Maximum Humidity 85    
Minimum Humidity 30    
Precipitation  
Precipitation 0.00 in 0.13 in 0.90 in (1965)
Month to date precipitation 6.98 2.84  
Sea Level Pressure  
Sea Level Pressure 30.23 in    
Wind  
Wind Speed 9 mph (SW)    
Max Wind Speed 16 mph    
Max Gust Speed 23 mph    
Visibility 10 miles    
Events      
T = Trace of Precipitation, MM = Missing Value Source: NWS Daily Summary

Daily Weather History Graph

Daily Weather History Graph

Search for Another Location

Airport or City:

Trip Planner

Search our weather history database for the weather conditions in past years. The results will help you decide how hot, cold, wet, or windy it might be!

Date:

Astronomy

Apr. 25, 2013 Rise Set
Actual Time 6:22 AM CDT 8:05 PM CDT
Civil Twilight 5:52 AM CDT 8:34 PM CDT
Nautical Twilight 5:17 AM CDT 9:10 PM CDT
Astronomical Twilight 4:39 AM CDT 9:48 PM CDT
Moon 8:19 PM CDT (4/25) 6:05 AM CDT (4/25)
Length of Visible Light 14h 42m
Length of Day
13h 43m
Full, 100% of the Moon is Illuminated
Apr 25
Full
Apr 25
Full
May 2
Last Quarter
May 9
New
May 17
First Quarter

Hourly Weather History & Observations

Time (CDT) Temp. Windchill Dew Point Humidity Pressure Visibility Wind Dir Wind Speed Gust Speed Precip Events Conditions
12:53 AM 39.9 °F 34.5 °F 35.1 °F 83% 30.21 in 10.0 mi West 8.1 mph - N/A   Clear
1:53 AM 37.9 °F 32.1 °F 33.1 °F 83% 30.22 in 10.0 mi West 8.1 mph - N/A   Clear
2:53 AM 36.0 °F 30.3 °F 30.9 °F 82% 30.23 in 10.0 mi West 6.9 mph - N/A   Clear
3:53 AM 35.1 °F 31.0 °F 30.0 °F 82% 30.23 in 10.0 mi SW 4.6 mph - N/A   Clear
4:53 AM 35.1 °F 32.2 °F 30.9 °F 85% 30.23 in 10.0 mi SW 3.5 mph - N/A   Clear
5:53 AM 33.1 °F 28.7 °F 28.9 °F 85% 30.24 in 10.0 mi SW 4.6 mph - N/A   Clear
6:53 AM 35.1 °F 30.1 °F 30.0 °F 82% 30.26 in 10.0 mi West 5.8 mph - N/A   Clear
7:53 AM 39.0 °F 33.4 °F 32.0 °F 76% 30.28 in 10.0 mi West 8.1 mph - N/A   Clear
8:53 AM 45.0 °F 39.7 °F 35.1 °F 68% 30.29 in 10.0 mi West 10.4 mph - N/A   Clear
9:53 AM 48.9 °F - 34.0 °F 56% 30.30 in 10.0 mi West 13.8 mph - N/A   Clear
10:53 AM 52.0 °F - 32.0 °F 47% 30.30 in 10.0 mi West 13.8 mph - N/A   Clear
11:53 AM 55.0 °F - 30.9 °F 40% 30.30 in 10.0 mi West 12.7 mph 18.4 mph N/A   Clear
12:53 PM 57.0 °F - 30.9 °F 37% 30.28 in 10.0 mi Variable 5.8 mph - N/A   Clear
1:53 PM 59.0 °F - 28.9 °F 32% 30.27 in 10.0 mi WSW 9.2 mph - N/A   Clear
2:53 PM 60.1 °F - 30.0 °F 32% 30.25 in 10.0 mi SW 4.6 mph - N/A   Clear
3:53 PM 62.1 °F - 30.9 °F 31% 30.22 in 10.0 mi South 10.4 mph - N/A   Clear
4:53 PM 62.1 °F - 30.9 °F 31% 30.19 in 10.0 mi SW 11.5 mph - N/A   Clear
5:53 PM 62.1 °F - 33.1 °F 34% 30.19 in 10.0 mi South 13.8 mph - N/A   Clear
6:53 PM 61.0 °F - 34.0 °F 36% 30.17 in 10.0 mi SSE 9.2 mph 18.4 mph N/A   Clear
7:53 PM 57.9 °F - 34.0 °F 41% 30.15 in 10.0 mi SSE 8.1 mph - N/A   Clear
8:53 PM 55.0 °F - 36.0 °F 49% 30.16 in 10.0 mi SSE 11.5 mph - N/A   Clear
9:53 PM 54.0 °F - 37.0 °F 53% 30.17 in 10.0 mi SSE 11.5 mph - N/A   Clear
10:53 PM 53.1 °F - 37.9 °F 57% 30.17 in 10.0 mi SSE 11.5 mph 19.6 mph N/A   Clear
11:53 PM 52.0 °F - 39.0 °F 61% 30.17 in 10.0 mi South 9.2 mph - N/A   Clear